Regional Weather Roundup
Issued by NWS Sioux Falls, SD

Home | Current Version | Previous Version | Text Only | Print | Product List | Glossary Off
Versions: 1 2 3 4 5 6 7 8 9 10 11 12 13 14 15 16 17 18 19 20 21 22 23 24 25 26 27 28 29 30 31 32 33 34 35 36 37 38 39 40 41 42 43 44 45 46 47 48 49 50

648
ASUS43 KFSD 090410
RWRFSD

WEATHER ROUNDUP FOR SE SOUTH DAKOTA/SW MINNESOTA/NW IOWA
NATIONAL WEATHER SERVICE SIOUX FALLS SD
1000 PM CST THU DEC 08 2016

NOTE: "FAIR" INDICATES FEW OR NO CLOUDS BELOW 12,000 FEET WITH NO
SIGNIFICANT WEATHER AND OR OBSTRUCTIONS TO VISIBILITY.


SDZ038>040-050-052>070-090500-
SOUTHEAST SOUTH DAKOTA

CITY           SKY/WX    TMP DP  RH WIND       PRES   REMARKS
BROOKINGS      CLEAR      3  -1  83 NW9       30.56R WCI -12
CHAMBERLAIN    LGT SNOW   6   3  84 N6        30.61S WCI  -4
HURON          CLEAR     -1  -4  87 NW6       30.63F WCI -13
MADISON        FAIR       1   1 100 NW10      30.56S WCI -14
MITCHELL       CLEAR      3  -1  83 NW8       30.65F WCI -10
SIOUX FALLS    CLEAR      7   3  84 NW6       30.59R WCI  -3
WINNER         FAIR       1  -5  75 W5        30.58S WCI  -9
YANKTON        CLEAR      9   1  72 W9        30.63F WCI  -5
$$

MNZ071-072-080-081-089-090-097-098-090500-
SOUTHWEST MINNESOTA

CITY           SKY/WX    TMP DP  RH WIND       PRES   REMARKS
FAIRMONT       FLURRIES  13   8  81 NW17      30.56R WCI  -4
JACKSON        FLURRIES  12   7  79 NW15      30.54S WCI  -4
LUVERNE        CLEAR      9   3  78 NW10      30.58R WCI  -6
MARSHALL       CLEAR      7   3  84 NW12      30.58S WCI  -8
MONTEVIDEO     CLOUDY     7   3  85 N9        30.60S WCI  -7
PIPESTONE      CLEAR      7   3  85 NW14      30.54S WCI -10
REDWOOD FALLS  CLOUDY    12   5  73 NW10G20   30.57R WCI  -1
WINDOM         FLURRIES  10   7  85 NW12      30.54S WCI  -4
WORTHINGTON    CLEAR      8   4  83 NW12      30.55S WCI  -7
$$

IAZ001>003-012>014-020>022-031-032-NEZ013-014-SDZ071-090500-
NORTHWEST IOWA

CITY           SKY/WX    TMP DP  RH WIND       PRES   REMARKS
CHEROKEE       CLEAR     11   7  82 NW7       30.59S WCI   1
DENISON        CLEAR     14   9  79 NW13      30.59R WCI   0
ESTHERVILLE    FLURRIES  13   8  81 NW15      30.55R WCI  -3
LE MARS        CLEAR     10   5  79 NW7       30.63S WCI   0
ORANGE CITY    CLEAR      9   7  92 NW9       30.58S WCI  -5
SHELDON        CLEAR      9   7  92 NW12      30.56S WCI  -6
SIOUX CITY     CLEAR     14   6  70 NW10      30.64S WCI   1
SPENCER        CLEAR     10   6  84 NW17      30.57R WCI  -8
STORM LAKE     CLEAR     12   7  79 NW13      30.56S WCI  -3
$$

ABBREVIATIONS USED IN REMARKS
   TC - TEMPERATURE IN CELSIUS
  WCI - WIND CHILL INDEX
   HX - HEAT INDEX
  VSB - VISIBILITY





USA.gov is the U.S. government's official web portal to all federal, state and local government web resources and services.